GEESAT 4-09

导读

GEESAT 4-09是中国于2025年8月8日发射的卫星。作为GEESAT 4系列的重要组成部分,该卫星承载着中国航天领域相关任务目标,有望在通信服务、遥感监测等应用场景中发挥作用,进一步推动中国卫星网络布局完善,助力商业航天发展,为相关领域的科研与应用提供数据与技术支撑。

基本信息
目录编号:
65127
目录名称:
GEESAT 4-09
国际标识:
2025-170J
轨道中心:
EARTH
卫星名称:
GEESAT 4-09
卫星全名:
GEESAT 4-09
卫星状态:
在轨 (已飞行399 天)
发射日期:
2025-08-08 UTC
国别 :
中国 (CN)
星等 :
--
该卫星已列入 空间交会检测服务 Space Conjunction Data Service (SCDS) ,当前飞行风险评估等级: 无高风险
轨道信息
数据来源 国际轨道数据 AOE轨道数据
星历时间 2026-09-11T14:51:03+0800
6小时前
查看轨道信息
2026-09-10T23:00:00+0800
21小时前
查看轨道信息
半长轴 7002.335km 7002.336km
偏心率 0.0022316 0.0022247
轨道倾角 49.991° 49.990°
近地点辐角 0.533° 357.825°
升交点赤经 166.237° 169.289°
平近点角 359.563° 77.007°
近地点 608.571km 608.62km
远地点 639.825km 639.778km
周期 97.191分钟 97.191分钟
每日圈数 14.816257 14.816253
详细信息
使用方式:
暂无
2D轨道图
3D轨道图
轨道高度分析图
轨道倾角分析图
轨道综合分析图
查看轨道综合分析图
与全量物体交会距离演化趋势
与全量物体交会风险概率演化趋势